Date String (YYYY-MM-DD hh:mm:ss) UTC,Instrument flags,Ambient pressure (hPa),Sample flow (lpm),Bypass flow (lpm),Sample temperature (°C),Ambient temperature (°C),ASC tube jacket temperature (°C),LED temperature (°C),Box temperature (°C),Sample RH (%),Span deviation,Mass concentration (μg/m³),Mass concentration (μg/m³),Mass concentration (μg/m³)
DateTimeUTC,F1_M11,P_M11,Q1_M11,Q2_M11,T1_M11,T2_M11,T3_M11,T4_M11,T5_M11,U1_M11,ZSPAN_M11,X0_M11,X2_M11,X1_M11
2023-01-12 23:00:00,,0832.7,4.99,0.00,27.4,26.1,00.0,36.1,29.2,11.8,0000.3,0023.54,0013.88,0013.30
2023-01-12 23:01:00,,0832.7,4.99,0.00,27.4,26.1,00.0,36.1,29.2,11.9,0000.3,0023.98,0013.84,0013.27
2023-01-12 23:02:00,,0832.7,4.99,0.00,27.4,26.1,00.0,36.1,29.2,11.9,0000.1,0024.00,0013.84,0013.24
2023-01-12 23:03:00,,0832.8,4.99,0.00,27.4,26.1,00.0,36.1,29.2,11.9,0000.0,0024.01,0013.86,0013.24
2023-01-12 23:04:00,,0832.7,5.01,0.00,27.4,26.1,00.0,36.1,29.2,11.9,-000.1,0023.33,0013.93,0013.24
2023-01-12 23:05:00,,0832.7,5.02,0.00,27.4,26.1,00.0,36.1,29.2,11.8,-000.1,0022.95,0013.95,0013.20
2023-01-12 23:06:00,,0832.8,4.99,0.00,27.4,26.1,00.0,36.2,29.2,11.8,-000.1,0022.65,0013.91,0013.16
2023-01-12 23:07:00,,0832.8,4.99,0.00,27.4,26.1,00.0,36.2,29.2,11.7,-000.1,0022.45,0013.87,0013.12
2023-01-12 23:08:00,,0832.8,4.99,0.00,27.4,26.1,00.0,36.2,29.2,11.7,-000.1,0022.54,0013.84,0013.09
2023-01-12 23:09:00,,0832.8,4.99,0.00,27.4,26.1,00.0,36.2,29.2,11.7,-000.4,0022.33,0013.76,0013.00
2023-01-12 23:10:00,,0832.8,5.00,0.00,27.4,26.1,00.0,36.2,29.2,11.6,-000.5,0021.84,0013.67,0012.95
2023-01-12 23:11:00,,0832.8,5.00,0.00,27.4,26.1,00.0,36.2,29.2,11.6,-000.4,0021.36,0013.57,0012.90
2023-01-12 23:12:00,,0832.8,5.01,0.00,27.4,26.1,00.0,36.2,29.2,11.5,-000.4,0020.54,0013.52,0012.86
2023-01-12 23:13:00,,0832.8,5.00,0.00,27.4,26.1,00.0,36.2,29.2,11.5,-000.0,0020.49,0013.49,0012.83
2023-01-12 23:14:00,,0832.8,5.00,0.00,27.4,26.1,00.0,36.2,29.2,11.4,0000.0,0020.18,0013.41,0012.76
2023-01-12 23:15:00,,0832.8,5.00,0.00,27.4,26.1,00.0,36.2,29.2,11.4,0000.3,0019.97,0013.31,0012.71
2023-01-12 23:16:00,,0832.8,4.99,0.00,27.4,26.1,00.0,36.2,29.2,11.5,0000.3,0020.04,0013.28,0012.69
2023-01-12 23:17:00,,0832.8,5.01,0.00,27.4,26.1,00.0,36.2,29.2,11.6,0000.2,0020.03,0013.24,0012.67
2023-01-12 23:18:00,,0832.8,5.00,0.00,27.4,26.1,00.0,36.2,29.2,11.6,-000.1,0019.92,0013.19,0012.62
2023-01-12 23:19:00,,0832.8,4.99,0.00,27.4,26.0,00.0,36.2,29.2,11.7,-000.1,0019.60,0013.09,0012.53
2023-01-12 23:20:00,,0832.8,5.01,0.00,27.4,26.0,00.0,36.2,29.2,11.8,-000.0,0020.00,0013.02,0012.47
2023-01-12 23:21:00,,0832.8,5.01,0.00,27.4,26.0,00.0,36.2,29.2,11.9,-000.0,0020.53,0013.02,0012.41
2023-01-12 23:22:00,,0832.8,5.00,0.00,27.4,26.0,00.0,36.2,29.2,11.9,-000.2,0020.48,0012.96,0012.34
2023-01-12 23:23:00,,0832.8,4.99,0.00,27.4,26.0,00.0,36.2,29.2,11.9,-000.1,0020.42,0012.89,0012.27
2023-01-12 23:24:00,,0832.8,5.00,0.00,27.4,26.0,00.0,36.2,29.2,11.9,-000.2,0019.81,0012.79,0012.18
2023-01-12 23:25:00,,0832.7,5.00,0.00,27.4,26.0,00.0,36.2,29.2,11.8,-000.2,0020.18,0012.72,0012.09
2023-01-12 23:26:00,,0832.7,5.00,0.00,27.4,26.0,00.0,36.2,29.2,11.6,-000.2,0020.37,0012.64,0011.99
2023-01-12 23:27:00,,0832.8,4.99,0.00,27.4,26.0,00.0,36.2,29.2,11.4,-000.2,0020.19,0012.55,0011.88
2023-01-12 23:28:00,,0832.7,5.00,0.00,27.4,26.0,00.0,36.2,29.2,11.3,-000.1,0019.91,0012.41,0011.75
2023-01-12 23:29:00,,0832.7,5.01,0.00,27.4,26.0,00.0,36.2,29.2,11.2,-000.0,0020.14,0012.33,0011.65
2023-01-12 23:30:00,,0832.7,5.01,0.00,27.4,26.0,00.0,36.2,29.2,11.4,-000.1,0020.31,0012.28,0011.60
2023-01-12 23:31:00,,0832.8,5.00,0.00,27.4,26.0,00.0,36.2,29.2,11.4,-000.1,0019.92,0012.26,0011.56
2023-01-12 23:32:00,,0832.7,5.00,0.00,27.4,26.0,00.0,36.2,29.2,11.4,0000.0,0019.42,0012.20,0011.50
2023-01-12 23:33:00,,0832.7,4.99,0.00,27.4,26.0,00.0,36.2,29.2,11.1,0000.2,0019.53,0012.19,0011.45
2023-01-12 23:34:00,,0832.7,5.01,0.00,27.4,26.0,00.0,36.2,29.2,11.0,-000.0,0019.66,0012.21,0011.43
2023-01-12 23:35:00,,0832.7,5.01,0.00,27.4,26.0,00.0,36.2,29.2,10.9,-000.2,0020.70,0012.26,0011.41
2023-01-12 23:36:00,,0832.8,4.99,0.00,27.4,26.0,00.0,36.2,29.2,11.0,-000.2,0021.25,0012.29,0011.40
2023-01-12 23:37:00,,0832.7,5.00,0.00,27.4,26.0,00.0,36.2,29.2,10.8,-000.6,0021.62,0012.37,0011.40
2023-01-12 23:38:00,,0832.8,5.00,0.00,27.4,25.9,00.0,36.2,29.2,10.7,-000.5,0021.95,0012.42,0011.40
2023-01-12 23:39:00,,0832.9,5.00,0.00,27.4,25.9,00.0,36.2,29.2,10.8,-000.5,0022.28,0012.50,0011.42
2023-01-12 23:40:00,,0832.9,4.99,0.00,27.4,25.9,00.0,36.2,29.2,10.9,-000.5,0022.56,0012.54,0011.45
2023-01-12 23:41:00,,0832.8,5.00,0.00,27.4,25.9,00.0,36.2,29.2,10.9,-000.5,0022.49,0012.60,0011.47
2023-01-12 23:42:00,,0832.8,5.00,0.00,27.4,25.9,00.0,36.2,29.2,10.9,-000.4,0022.84,0012.64,0011.49
2023-01-12 23:43:00,,0832.8,5.00,0.00,27.4,25.9,00.0,36.2,29.2,10.9,-000.5,0023.07,0012.68,0011.50
2023-01-12 23:44:00,,0832.9,5.01,0.00,27.4,25.9,00.0,36.2,29.2,10.8,-000.5,0023.14,0012.70,0011.52
2023-01-12 23:45:00,,0832.9,5.01,0.00,27.4,25.8,00.0,36.2,29.2,11.0,-000.3,0023.27,0012.71,0011.54
2023-01-12 23:46:00,,0832.9,5.00,0.00,27.3,25.8,00.0,36.2,29.1,11.1,-000.6,0022.74,0012.74,0011.59
2023-01-12 23:47:00,,0832.8,5.00,0.00,27.3,25.7,00.0,36.2,29.1,11.1,-000.6,0022.40,0012.78,0011.64
2023-01-12 23:48:00,,0832.8,4.99,0.00,27.3,25.7,00.0,36.2,29.1,11.0,-000.4,0022.00,0012.73,0011.67
2023-01-12 23:49:00,,0832.8,5.00,0.00,27.3,25.7,00.0,36.2,29.0,11.0,-000.7,0021.73,0012.71,0011.71
2023-01-12 23:50:00,,0832.8,5.01,0.00,27.3,25.7,00.0,36.1,29.0,11.0,-000.9,0021.61,0012.74,0011.77
2023-01-12 23:51:00,,0832.8,5.00,0.00,27.3,25.7,00.0,36.1,29.0,11.0,-001.0,0021.78,0012.79,0011.84
2023-01-12 23:52:00,,0832.9,5.00,0.00,27.3,25.7,00.0,36.1,29.0,11.0,-001.0,0021.82,0012.84,0011.90
2023-01-12 23:53:00,,0832.8,5.01,0.00,27.2,25.7,00.0,36.1,29.0,10.8,-001.0,0021.61,0012.87,0011.96
2023-01-12 23:54:00,,0832.9,5.00,0.00,27.2,25.7,00.0,36.1,29.0,10.7,-000.8,0021.43,0012.91,0012.00
2023-01-12 23:55:00,,0833.0,5.01,0.00,27.2,25.6,00.0,36.1,29.0,10.8,-000.7,0021.43,0012.94,0012.02
2023-01-12 23:56:00,,0833.1,5.00,0.00,27.2,25.6,00.0,36.1,29.0,11.1,-000.8,0021.43,0013.00,0012.07
2023-01-12 23:57:00,,0833.0,5.00,0.00,27.2,25.6,00.0,36.1,29.0,11.2,-000.5,0021.10,0012.99,0012.11
2023-01-12 23:58:00,,0833.0,5.00,0.00,27.2,25.5,00.0,36.1,28.9,11.0,-000.4,0020.64,0012.99,0012.11
2023-01-12 23:59:00,,0833.1,4.99,0.00,27.2,25.5,00.0,36.1,28.9,11.2,-000.4,0020.39,0013.05,0012.17
